Home > Weather > Rosenheim > Past weeks

Flag for Germany Weather for the Past 2 Weeks in Rosenheim, Bavaria, Germany

Now
39 °F

Fog.


Feels Like: 39 °F
Forecast: 37 / 44 °F
Wind: 2 mph from Northeast

Location: Kufstein

Current Time: Feb 14, 2016 at 10:46:02 PM

Latest Report: Feb 14, 2016 at 10:00 PM


Visibility: N/A

Pressure: 29.50 "Hg

Humidity: 89%

Dew point: 36 °F

Location of RosenheimLocation

Historic Weather in Rosenheim — Graph

°F

Rosenheim Temperature Yesterday

Maximum temperature yesterday: 44 °F (at 4:00 PM)
Minimum temperature yesterday: 33 °F (at 4:00 AM)
Average temperature yesterday: 37 °F

High & Low Weather Summary for the Past Weeks

 TemperatureHumidityPressure
High58 °F (Feb 9, 5:00 PM)100% (Feb 2, 12:00 AM)30.48 "Hg (Feb 2, 12:00 AM)
Low24 °F (Feb 12, 8:00 AM)31% (Feb 9, 5:00 PM)29.21 "Hg (Feb 14, 2:00 PM)
Average38 °F83%29.89 "Hg
* Reported Jan 30 9:00 PM — Feb 14 9:00 PM, Rosenheim, Weather by CustomWeather, © 2016

Note: Actual official high and low records may vary slightly from our data, if they occured in-between our weather recording intervals... More about our weather records

Advertising

Rosenheim Weather History for the Previous 24 Hours

 ConditionsComfort  
Time TempWeatherWind HumidityBarometerVisibility
9:00 PM
Sun, Feb 14
40 °FQuite cool.2 mph80%29.44 "HgN/A
8:00 PM40 °FQuite cool.1 mph73%29.38 "HgN/A
7:00 PM41 °FQuite cool.3 mph71%29.32 "HgN/A
6:00 PM42 °FQuite cool.2 mph69%29.29 "HgN/A
5:00 PM42 °FQuite cool.1 mph70%29.23 "HgN/A
4:00 PM43 °FQuite cool.1 mph62%29.21 "HgN/A
3:00 PM42 °FQuite cool.No wind63%29.21 "HgN/A
2:00 PM41 °FQuite cool.No wind69%29.21 "HgN/A
1:00 PM40 °FChilly.1 mph70%29.23 "HgN/A
12:00 PM38 °FChilly.No wind74%29.26 "HgN/A
11:00 AM35 °FChilly.1 mph80%29.29 "HgN/A
10:00 AM32 °FChilly.No wind88%29.32 "HgN/A
9:00 AM30 °FChilly.1 mph92%29.35 "HgN/A
8:00 AM29 °FChilly.No wind94%29.32 "HgN/A
7:00 AM29 °FPassing clouds.1 mph95%29.32 "Hg9 mi
6:00 AM29 °FChilly.1 mph94%29.32 "HgN/A
5:00 AM30 °FChilly.No wind92%29.32 "HgN/A
4:00 AM31 °FChilly.1 mph90%29.32 "HgN/A
3:00 AM33 °FChilly.2 mph89%29.32 "HgN/A
2:00 AM34 °FChilly.2 mph86%29.32 "HgN/A
1:00 AM34 °FChilly.3 mph88%29.32 "HgN/A
10:00 PM
Sat, Feb 13
36 °FPassing clouds.1 mph86%29.32 "Hg2 mi
Weather by CustomWeather, © 2016

See weather overviewHow to use our weather pages